Powrót do katalogu

SL-12 R/B

AUX MOTOR

AktywnyHEO
NORAD 33385·ROCKET BODY·🇷🇺 Russia

Wystrzelony Sep 25, 2008 z Baikonur Cosmodrome

Loading…

Następne Przeloty (najbliższe 24 godziny)

TLE

ŚwieżeSource: Space-Track

Epoka: Sep 8, 2026, 08:08 UTC

1 33385U 08046H   26251.33894719  .00000025  00000-0  71884-3 0  9998
2 33385  65.2644  28.4386 5544605 266.6568  31.9706  4.21878146188992

Śledź SL-12 R/B w czasie rzeczywistym z AllMySat

Download on the App Store